Regional Weather Roundup
Issued by NWS

Home | Current Version | Previous Version | Graphics & Text | Print | Product List | Glossary On
Versions: 1 2 3 4 5 6 7 8 9 10 11 12 13 14 15 16 17 18 19 20 21 22 23 24 25 26 27 28 29 30 31 32 33 34 35 36 37 38 39 40 41 42 43 44 45 46 47 48 49 50
000
ASUS45 KABQ 211810
RWRNM
NEW MEXICO REGIONAL WEATHER ROUNDUP
NATIONAL WEATHER SERVICE ALBUQUERQUE NM
1100 AM MST WED FEB 21 2018

NOTE: "FAIR" MEANS FEW OR NO CLOUDS BELOW 12,000 FEET AGL WITH NO
       SIGNIFICANT WEATHER OR OBSTRUCTIONS TO VISION.

      THIS PRODUCT IS RELEASED AS TWO VERSIONS.  ONE VERSION NEAR
      THE TOP OF THE HOUR CONTAINING PRELIMINARY DATA FROM ALBUQUERQUE
      AND OTHER STATIONS.  A FINAL VERSION WITH ADDITIONAL DATA IS
      ISSUED ABOUT 10 MINUTES AFTER THE HOUR.

NMZ501-503-504-510>518-211900-
NORTHWEST PLATEAU/NORTHCENTRAL MOUNTAINS

CITY           SKY/WX    TMP DP  RH WIND       PRES   REMARKS
FARMINGTON     FAIR      35  14  42 E14       30.10F WCI  26
6HR MIN TEMP:  15; 6HR MAX TEMP:  35;

LOS ALAMOS     CLOUDY    31  20  63 SE8       30.12S WCI  23
SANTA FE       CLOUDY    34  17  50 SE15      30.12F WCI  24
6HR MIN TEMP:  24; 6HR MAX TEMP:  34;

TAOS           MIX PCPN  31  18  58 VRB5      30.14S WCI  26
ANGEL FIRE     CLOUDY    28  18  66 W13G20    30.09R WCI  17

$$
NMZ402-403-502-505>509-211900-
WESTCENTRAL MOUNTAINS/SOUTHWEST MOUNTAINS

CITY           SKY/WX    TMP DP  RH WIND       PRES   REMARKS
GALLUP         CLOUDY    34  21  59 CALM      30.07F
6HR MIN TEMP:  14; 6HR MAX TEMP:  34;

GRANTS         CLOUDY    37  17  44 SE14G20   30.09S WCI  28
SILVER CITY    CLOUDY    46  32  58 SE10      30.11F

$$
NMZ407-409-411-412-211900-
SOUTHERN DESERTS

CITY           SKY/WX    TMP DP  RH WIND       PRES   REMARKS
DEMING         FAIR      52  35  52 SW7       30.11S
6HR MIN TEMP:  30; 6HR MAX TEMP:  52; 6HR PCP: TRACE;

LAS CRUCES     PTSUNNY   50  33  51 E7        30.11F
HOLLOMAN AFB   FAIR      53  35  50 S8        30.14S
ALAMOGORDO     FAIR      54  32  43 S14       30.13F
T OR C         NOT AVBL

$$
NMZ519>523-211900-
CENTRAL VALLEYS/CENTRAL HIGHLANDS

CITY           SKY/WX    TMP DP  RH WIND       PRES   REMARKS
ALBUQUERQUE    FAIR      42  21  43 N5        30.12F
6HR MIN TEMP:  30; 6HR MAX TEMP:  42;

DOUBLE EAGLE   MOSUNNY   37  18  44 N10       30.12S WCI  30
MORIARTY ARPT  FAIR      34  17  49 S12       30.17S WCI  26
6HR MIN TEMP:  18; 6HR MAX TEMP:  34;

CLINES CORNERS NOT AVBL
BELEN          FAIR      40  19  41 CALM      30.12F
6HR MIN TEMP:  23; 6HR MAX TEMP:  40;

SOCORRO        FAIR      42  20  41 CALM      30.12F
6HR MIN TEMP:  28; 6HR MAX TEMP:  42;


$$
NMZ524>526-539-540-211900-
SOUTHCENTRAL MOUNTAINS

CITY           SKY/WX    TMP DP  RH WIND       PRES   REMARKS
RUIDOSO        NOT AVBL

$$
NMZ527>531-211900-
NORTHEAST HIGHLANDS/NORTHEAST PLAINS

CITY           SKY/WX    TMP DP  RH WIND       PRES   REMARKS
LAS VEGAS      CLOUDY    23  10  57 S9        30.15S WCI  13
6HR MIN TEMP:   6; 6HR MAX TEMP:  24;

RATON          CLOUDY    20   6  55 CALM      30.17F
6HR MIN TEMP:   5; 6HR MAX TEMP:  20;

CLAYTON        CLOUDY    17  -4  39 NE6       30.27F WCI   9
6HR MIN TEMP:   3; 6HR MAX TEMP:  17;


$$
NMZ532>537-211900-
EASTCENTRAL PLAINS

CITY           SKY/WX    TMP DP  RH WIND       PRES   REMARKS
SANTA ROSA     CLOUDY    28   2  33 E8        30.26F WCI  20
TUCUMCARI      CLOUDY    25  -2  31 NE10      30.30F WCI  15
6HR MIN TEMP:  17; 6HR MAX TEMP:  25;

CANNON AFB     CLOUDY    25   1  36 NE12      30.29F WCI  14
6HR MIN TEMP:  18; 6HR MAX TEMP:  25;

CLOVIS AIRPORT NOT AVBL

$$
NMZ028-029-538-211900-
SOUTHEAST PLAINS

CITY           SKY/WX    TMP DP  RH WIND       PRES   REMARKS
ROSWELL        FAIR      34   8  33 MISG      30.29F
6HR MIN TEMP:  26; 6HR MAX TEMP:  34;

ARTESIA        FAIR      34   9  35 VRB5G14   30.30F WCI  30
CARLSBAD       FAIR      37  14  38 N7        30.29F WCI  32
6HR MIN TEMP:  30; 6HR MAX TEMP:  37;

HOBBS          CLOUDY    28  14  54 NE8G15    30.28S WCI  20


$$




USA.gov is the U.S. government's official web portal to all federal, state and local government web resources and services.